BOX25 EDDP-EDDF

Flight info

Callsign BOX25
Flight time 0h 42m
Altitude 20000
Route ORTAG5E/08R ORTAG T177 ODIPI T157 KERAX KERA5A EDDF/25R
Aircraft B77F/H-V/N

Departure

Time 2026-05-07 18:02
Airport Leipzig/Halle Airport (EDDP)

Arrival

Time 2026-05-07 18:45
Airport Frankfurt Main Airport (EDDF)
Time Latitude Longitude Altitude Speed Heading
2026-05-07 17:39 51.40792 12.24536 468 ft 0 kts 266°
2026-05-07 17:50 51.40792 12.24538 468 ft 2 kts 266°
2026-05-07 17:50 51.40793 12.24564 465 ft 2 kts 265°
2026-05-07 17:50 51.40795 12.24590 464 ft 2 kts 263°
2026-05-07 17:50 51.40798 12.24617 463 ft 2 kts 255°
2026-05-07 17:51 51.40802 12.24642 461 ft 2 kts 267°
2026-05-07 17:51 51.40799 12.24668 462 ft 2 kts 316°
2026-05-07 17:51 51.40786 12.24680 463 ft 1 kts 349°
2026-05-07 17:51 51.40781 12.24681 464 ft 0 kts 353°
2026-05-07 17:55 51.40783 12.24681 468 ft 2 kts 353°
2026-05-07 17:55 51.40822 12.24675 469 ft 9 kts 354°
2026-05-07 17:55 51.40890 12.24666 470 ft 10 kts 356°
2026-05-07 17:55 51.40966 12.24658 469 ft 11 kts 356°
2026-05-07 17:56 51.41048 12.24649 470 ft 13 kts 354°
2026-05-07 17:56 51.41135 12.24583 467 ft 15 kts 342°
2026-05-07 17:56 51.41175 12.24450 468 ft 15 kts 266°
2026-05-07 17:56 51.41168 12.24277 469 ft 17 kts 266°
2026-05-07 17:57 51.41158 12.24068 466 ft 19 kts 265°
2026-05-07 17:57 51.41150 12.23926 468 ft 20 kts 265°
2026-05-07 17:57 51.41137 12.23603 471 ft 23 kts 266°
2026-05-07 17:57 51.41124 12.23341 473 ft 25 kts 265°
2026-05-07 17:58 51.41109 12.23040 469 ft 29 kts 265°
2026-05-07 17:58 51.41094 12.22722 463 ft 29 kts 265°
2026-05-07 17:58 51.41080 12.22400 460 ft 29 kts 266°
2026-05-07 17:58 51.41065 12.22079 461 ft 28 kts 265°
2026-05-07 17:59 51.41051 12.21788 462 ft 26 kts 265°
2026-05-07 17:59 51.41037 12.21501 458 ft 26 kts 266°
2026-05-07 17:59 51.41025 12.21218 454 ft 25 kts 266°
2026-05-07 17:59 51.41011 12.20939 445 ft 25 kts 265°
2026-05-07 18:00 51.40998 12.20667 433 ft 24 kts 265°
2026-05-07 18:00 51.41011 12.20501 433 ft 12 kts 319°
2026-05-07 18:00 51.41094 12.20503 432 ft 12 kts 14°
2026-05-07 18:00 51.41159 12.20555 427 ft 10 kts 56°
2026-05-07 18:01 51.41170 12.20642 433 ft 0 kts 86°
2026-05-07 18:01 51.41170 12.20643 433 ft 0 kts 86°
2026-05-07 18:01 51.41171 12.20675 432 ft 0 kts 86°
2026-05-07 18:01 51.41175 12.20758 431 ft 24 kts 86°
2026-05-07 18:02 51.41273 12.22804 466 ft 152 kts 86°
2026-05-07 18:02 51.41360 12.24678 781 ft 169 kts 84°
2026-05-07 18:02 51.41426 12.26544 1521 ft 168 kts 85°
2026-05-07 18:03 51.41492 12.28422 2136 ft 173 kts 84°
2026-05-07 18:03 51.41584 12.30347 2796 ft 174 kts 83°
2026-05-07 18:03 51.41712 12.32303 3395 ft 177 kts 82°
2026-05-07 18:03 51.41846 12.34298 3990 ft 181 kts 82°
2026-05-07 18:04 51.41973 12.36351 4531 ft 187 kts 83°
2026-05-07 18:04 51.42152 12.38403 5035 ft 193 kts 69°
2026-05-07 18:04 51.42952 12.40162 5390 ft 198 kts 38°
2026-05-07 18:04 51.44047 12.41506 5942 ft 202 kts 37°
2026-05-07 18:05 51.45137 12.43041 6311 ft 214 kts 40°
2026-05-07 18:05 51.46507 12.44098 6598 ft 233 kts
2026-05-07 18:05 51.48169 12.43666 6914 ft 251 kts 333°
2026-05-07 18:05 51.49655 12.42111 7363 ft 264 kts 327°
2026-05-07 18:06 51.51237 12.40618 8059 ft 266 kts 330°
2026-05-07 18:06 51.52657 12.38636 8552 ft 281 kts 304°
2026-05-07 18:06 51.53264 12.35653 9276 ft 287 kts 270°
2026-05-07 18:06 51.53024 12.32486 10044 ft 287 kts 263°
2026-05-07 18:07 51.52764 12.29235 10521 ft 303 kts 264°
2026-05-07 18:07 51.52544 12.25725 10713 ft 329 kts 266°
2026-05-07 18:07 51.52351 12.21916 10923 ft 355 kts 266°
2026-05-07 18:07 51.52180 12.17862 11422 ft 370 kts 267°
2026-05-07 18:08 51.52029 12.13674 12200 ft 379 kts 268°
2026-05-07 18:08 51.51893 12.09469 13189 ft 383 kts 268°
2026-05-07 18:08 51.51765 12.05160 14138 ft 387 kts 268°
2026-05-07 18:08 51.51640 12.00806 14965 ft 393 kts 268°
2026-05-07 18:09 51.51515 11.96390 15801 ft 398 kts 268°
2026-05-07 18:09 51.51305 11.91950 16560 ft 403 kts 262°
2026-05-07 18:09 51.50553 11.87566 17319 ft 411 kts 249°
2026-05-07 18:09 51.49280 11.83510 18159 ft 414 kts 239°
2026-05-07 18:10 51.47721 11.79601 18846 ft 419 kts 238°
2026-05-07 18:10 51.46117 11.75644 19550 ft 423 kts 238°
2026-05-07 18:10 51.44490 11.71673 20087 ft 426 kts 237°
2026-05-07 18:10 51.42838 11.67636 20073 ft 437 kts 238°
2026-05-07 18:11 51.41176 11.63524 20084 ft 441 kts 238°
2026-05-07 18:11 51.40080 11.60789 20078 ft 440 kts 238°
2026-05-07 18:11 51.37875 11.55277 20069 ft 438 kts 238°
2026-05-07 18:11 51.36237 11.51187 20071 ft 437 kts 238°
2026-05-07 18:12 51.34614 11.47143 20071 ft 436 kts 238°
2026-05-07 18:12 51.32969 11.43054 20077 ft 435 kts 238°
2026-05-07 18:12 51.31329 11.38987 20066 ft 435 kts 238°
2026-05-07 18:12 51.30776 11.37617 20064 ft 435 kts 238°
2026-05-07 18:13 51.29225 11.33782 20067 ft 435 kts 238°
2026-05-07 18:13 51.27572 11.29701 20067 ft 435 kts 238°
2026-05-07 18:13 51.25923 11.25638 20073 ft 435 kts 238°
2026-05-07 18:13 51.24275 11.21583 20072 ft 436 kts 238°
2026-05-07 18:14 51.22621 11.17520 20070 ft 436 kts 238°
2026-05-07 18:14 51.20967 11.13464 20072 ft 435 kts 238°
2026-05-07 18:14 51.19310 11.09405 20071 ft 435 kts 238°
2026-05-07 18:14 51.17658 11.05365 20075 ft 435 kts 238°
2026-05-07 18:15 51.16017 11.01359 20072 ft 435 kts 237°
2026-05-07 18:15 51.14359 10.97317 20076 ft 435 kts 237°
2026-05-07 18:15 51.12699 10.93277 20079 ft 434 kts 237°
2026-05-07 18:15 51.11046 10.89260 20068 ft 434 kts 237°
2026-05-07 18:16 51.09405 10.85277 20065 ft 434 kts 237°
2026-05-07 18:16 51.07745 10.81256 20078 ft 433 kts 237°
2026-05-07 18:16 51.06090 10.77254 20068 ft 433 kts 237°
2026-05-07 18:16 51.04433 10.73251 20074 ft 433 kts 237°
2026-05-07 18:17 51.02777 10.69258 20067 ft 433 kts 237°
2026-05-07 18:17 51.01141 10.65323 20072 ft 432 kts 237°
2026-05-07 18:17 50.99460 10.61289 20070 ft 432 kts 237°
2026-05-07 18:17 50.97801 10.57311 20071 ft 432 kts 237°
2026-05-07 18:18 50.96165 10.53390 20066 ft 432 kts 237°
2026-05-07 18:18 50.94501 10.49410 20069 ft 432 kts 237°
2026-05-07 18:18 50.92837 10.45434 20069 ft 432 kts 237°
2026-05-07 18:18 50.91177 10.41473 20066 ft 432 kts 237°
2026-05-07 18:19 50.89511 10.37503 20064 ft 432 kts 237°
2026-05-07 18:19 50.87859 10.33573 20068 ft 432 kts 237°
2026-05-07 18:19 50.86192 10.29613 20069 ft 432 kts 237°
2026-05-07 18:19 50.84517 10.25639 20063 ft 432 kts 237°
2026-05-07 18:20 50.82846 10.21682 20025 ft 432 kts 237°
2026-05-07 18:20 50.81171 10.17722 19769 ft 432 kts 237°
2026-05-07 18:20 50.79503 10.13786 19525 ft 429 kts 237°
2026-05-07 18:20 50.77847 10.09880 19277 ft 426 kts 237°
2026-05-07 18:21 50.76196 10.05996 19037 ft 425 kts 237°
2026-05-07 18:21 50.74553 10.02133 18791 ft 423 kts 237°
2026-05-07 18:21 50.72935 9.98336 18564 ft 422 kts 237°
2026-05-07 18:21 50.71279 9.94454 18313 ft 421 kts 237°
2026-05-07 18:22 50.69665 9.90677 18036 ft 416 kts 237°
2026-05-07 18:22 50.69117 9.89398 17943 ft 412 kts 237°
2026-05-07 18:22 50.66510 9.83314 17462 ft 394 kts 237°
2026-05-07 18:22 50.64994 9.79783 17178 ft 384 kts 237°
2026-05-07 18:23 50.63512 9.76334 16898 ft 376 kts 237°
2026-05-07 18:23 50.62050 9.72935 16641 ft 373 kts 237°
2026-05-07 18:23 50.60591 9.69547 16385 ft 373 kts 237°
2026-05-07 18:23 50.59136 9.66172 16123 ft 372 kts 237°
2026-05-07 18:24 50.57683 9.62806 15860 ft 371 kts 237°
2026-05-07 18:24 50.56247 9.59484 15638 ft 371 kts 237°
2026-05-07 18:24 50.54792 9.56124 15383 ft 370 kts 237°
2026-05-07 18:24 50.53354 9.52808 15127 ft 369 kts 237°
2026-05-07 18:25 50.51909 9.49479 14887 ft 368 kts 237°
2026-05-07 18:25 50.50468 9.46162 14637 ft 367 kts 237°
2026-05-07 18:25 50.49029 9.42855 14385 ft 365 kts 237°
2026-05-07 18:25 50.47604 9.39562 14143 ft 364 kts 238°
2026-05-07 18:26 50.46346 9.36134 13905 ft 361 kts 243°
2026-05-07 18:26 50.45567 9.33827 13736 ft 360 kts 243°
2026-05-07 18:26 50.44034 9.29199 13373 ft 359 kts 243°
2026-05-07 18:26 50.42885 9.25732 13156 ft 356 kts 243°
2026-05-07 18:27 50.41742 9.22303 13101 ft 353 kts 243°
2026-05-07 18:27 50.40969 9.19997 13052 ft 354 kts 243°
2026-05-07 18:27 50.39835 9.16627 13057 ft 349 kts 243°
2026-05-07 18:27 50.38719 9.13331 13042 ft 335 kts 243°
2026-05-07 18:28 50.37649 9.10180 13044 ft 321 kts 243°
2026-05-07 18:28 50.36596 9.07081 13056 ft 323 kts 243°
2026-05-07 18:28 50.35536 9.03967 13068 ft 323 kts 243°
2026-05-07 18:28 50.34476 9.00857 13067 ft 322 kts 243°
2026-05-07 18:29 50.33432 8.97803 13070 ft 321 kts 243°
2026-05-07 18:29 50.32375 8.94713 13066 ft 321 kts 243°
2026-05-07 18:29 50.31323 8.91641 13055 ft 320 kts 243°
2026-05-07 18:29 50.30273 8.88576 13066 ft 319 kts 243°
2026-05-07 18:30 50.29222 8.85516 13045 ft 319 kts 243°
2026-05-07 18:30 50.28173 8.82461 13065 ft 318 kts 242°
2026-05-07 18:30 50.27135 8.79446 13058 ft 318 kts 243°
2026-05-07 18:30 50.26089 8.76409 13060 ft 317 kts 243°
2026-05-07 18:31 50.25043 8.73377 13061 ft 317 kts 242°
2026-05-07 18:31 50.23995 8.70344 13035 ft 317 kts 243°
2026-05-07 18:31 50.22945 8.67304 13056 ft 317 kts 242°
2026-05-07 18:31 50.21894 8.64270 13055 ft 317 kts 242°
2026-05-07 18:32 50.20846 8.61244 13051 ft 317 kts 242°
2026-05-07 18:32 50.19805 8.58244 13053 ft 317 kts 242°
2026-05-07 18:32 50.18749 8.55204 13054 ft 318 kts 242°
2026-05-07 18:32 50.17691 8.52162 12960 ft 319 kts 242°
2026-05-07 18:33 50.16632 8.49121 12560 ft 317 kts 242°
2026-05-07 18:33 50.15593 8.46142 12172 ft 314 kts 242°
2026-05-07 18:33 50.14553 8.43163 11790 ft 311 kts 242°
2026-05-07 18:33 50.13521 8.40210 11409 ft 308 kts 242°
2026-05-07 18:34 50.12500 8.37291 11034 ft 305 kts 242°
2026-05-07 18:34 50.11484 8.34390 10669 ft 302 kts 242°
2026-05-07 18:34 50.10491 8.31558 10318 ft 299 kts 242°
2026-05-07 18:34 50.09496 8.28721 9939 ft 297 kts 242°
2026-05-07 18:35 50.08506 8.25904 9534 ft 296 kts 242°
2026-05-07 18:35 50.07521 8.23100 9134 ft 294 kts 242°
2026-05-07 18:35 50.06540 8.20313 8725 ft 291 kts 242°
2026-05-07 18:35 50.05583 8.17597 8326 ft 283 kts 242°
2026-05-07 18:36 50.04638 8.14920 7933 ft 282 kts 242°
2026-05-07 18:36 50.03696 8.12256 7564 ft 280 kts 242°
2026-05-07 18:36 50.02796 8.09590 7186 ft 276 kts 247°
2026-05-07 18:36 50.02114 8.06862 6914 ft 270 kts 251°
2026-05-07 18:37 50.01417 8.04218 6620 ft 260 kts 238°
2026-05-07 18:37 50.00141 8.02295 6353 ft 254 kts 208°
2026-05-07 18:37 49.98457 8.01645 6071 ft 249 kts 178°
2026-05-07 18:37 49.96813 8.02291 5774 ft 243 kts 157°
2026-05-07 18:38 49.95398 8.03639 5434 ft 239 kts 132°
2026-05-07 18:38 49.94610 8.05826 5134 ft 236 kts 102°
2026-05-07 18:38 49.94366 8.08297 5065 ft 231 kts 95°
2026-05-07 18:38 49.94439 8.10789 5013 ft 233 kts 73°
2026-05-07 18:39 49.94946 8.13184 4997 ft 228 kts 69°
2026-05-07 18:39 49.95475 8.15414 5011 ft 212 kts 68°
2026-05-07 18:39 49.95983 8.17518 4981 ft 208 kts 68°
2026-05-07 18:39 49.96482 8.19586 4689 ft 203 kts 68°
2026-05-07 18:40 49.96966 8.21598 4384 ft 194 kts 68°
2026-05-07 18:40 49.97432 8.23534 4080 ft 187 kts 68°
2026-05-07 18:40 49.97879 8.25395 3830 ft 180 kts 68°
2026-05-07 18:40 49.98303 8.27162 3583 ft 173 kts 68°
2026-05-07 18:41 49.98726 8.28923 3344 ft 175 kts 68°
2026-05-07 18:41 49.99155 8.30710 3100 ft 177 kts 68°
2026-05-07 18:41 49.99584 8.32500 2833 ft 175 kts 68°
2026-05-07 18:41 50.00007 8.34266 2571 ft 173 kts 68°
2026-05-07 18:42 50.00427 8.36017 2327 ft 173 kts 68°
2026-05-07 18:42 50.00839 8.37739 2081 ft 170 kts 69°
2026-05-07 18:42 50.01251 8.39456 1832 ft 169 kts 69°
2026-05-07 18:42 50.01656 8.41147 1611 ft 166 kts 69°
2026-05-07 18:43 50.02054 8.42809 1329 ft 160 kts 69°
2026-05-07 18:43 50.02432 8.44385 1096 ft 149 kts 69°
2026-05-07 18:43 50.02784 8.45839 923 ft 139 kts 69°
2026-05-07 18:43 50.03126 8.47258 735 ft 141 kts 69°
2026-05-07 18:44 50.03466 8.48690 537 ft 139 kts 69°
2026-05-07 18:44 50.03792 8.50044 364 ft 131 kts 69°
2026-05-07 18:44 50.04072 8.51230 360 ft 97 kts 69°
2026-05-07 18:44 50.04257 8.51996 361 ft 58 kts 69°
2026-05-07 18:45 50.04379 8.52513 356 ft 33 kts 73°
2026-05-07 18:45 50.04398 8.52795 360 ft 21 kts 96°
2026-05-07 18:45 50.04382 8.52945 358 ft 8 kts 100°
2026-05-07 18:45 50.04372 8.53029 357 ft 8 kts 100°
2026-05-07 18:46 50.04363 8.53113 355 ft 8 kts 99°
2026-05-07 18:46 50.04355 8.53197 355 ft 2 kts 98°
2026-05-07 18:46 50.04351 8.53217 356 ft 5 kts 106°
2026-05-07 18:46 50.04330 8.53224 357 ft 3 kts 220°
2026-05-07 18:47 50.04319 8.53172 357 ft 7 kts 252°
2026-05-07 18:47 50.04299 8.53074 355 ft 11 kts 250°
2026-05-07 18:47 50.04266 8.52935 356 ft 16 kts 249°
2026-05-07 18:47 50.04222 8.52753 358 ft 20 kts 249°
2026-05-07 18:48 50.04172 8.52543 355 ft 21 kts 249°
2026-05-07 18:48 50.04121 8.52332 358 ft 21 kts 249°
2026-05-07 18:48 50.04071 8.52123 358 ft 21 kts 249°
2026-05-07 18:48 50.04021 8.51912 360 ft 21 kts 250°
2026-05-07 18:49 50.03970 8.51702 358 ft 21 kts 249°
2026-05-07 18:49 50.03919 8.51491 355 ft 21 kts 250°
2026-05-07 18:49 50.03870 8.51284 358 ft 16 kts 250°
2026-05-07 18:49 50.03803 8.51156 359 ft 16 kts 204°
2026-05-07 18:50 50.03694 8.51184 365 ft 17 kts 140°
2026-05-07 18:50 50.03636 8.51341 373 ft 17 kts 116°
2026-05-07 18:50 50.03585 8.51502 375 ft 17 kts 116°
2026-05-07 18:50 50.03533 8.51666 374 ft 17 kts 116°
2026-05-07 18:51 50.03514 8.51808 372 ft 13 kts 83°
2026-05-07 18:51 50.03526 8.51964 364 ft 17 kts 83°
2026-05-07 18:51 50.03538 8.52116 355 ft 12 kts 83°
2026-05-07 18:51 50.03543 8.52187 353 ft 4 kts 83°
2026-05-07 18:52 50.03544 8.52194 354 ft 0 kts 83°
2026-05-07 18:53 50.03545 8.52217 357 ft 6 kts 83°
2026-05-07 18:53 50.03553 8.52306 353 ft 9 kts 77°
2026-05-07 18:53 50.03573 8.52397 355 ft 9 kts 71°
2026-05-07 18:54 50.03593 8.52494 360 ft 9 kts 77°
2026-05-07 18:54 50.03598 8.52598 350 ft 10 kts 88°
2026-05-07 18:54 50.03614 8.52699 355 ft 10 kts 71°
2026-05-07 18:54 50.03636 8.52795 358 ft 8 kts 62°
2026-05-07 18:55 50.03687 8.52804 351 ft 8 kts 344°
2026-05-07 18:55 50.03739 8.52776 360 ft 6 kts 340°
2026-05-07 18:55 50.03742 8.52774 360 ft 0 kts 340°